,,Stat6,,Stat2,,Stat8,,Stat9,,Stat10,,Wind1,,Wind1,
time,status,PA1M_AVG,status,PR1M_SUM,status,RH1M_AVG,status,SR1M_AVG,status,TA1M_AVG,status,W1dAve1m,status,W1sAve1m,
2007-10-23, 00:00:00,VALID,917.274,VALID,0,VALID,100,VALID,-0.0339617,VALID,18.7175,VALID,68,VALID,0,
2007-10-23, 00:01:00,VALID,917.273,VALID,0.2,VALID,100,VALID,-0.0339617,VALID,18.7242,VALID,68,VALID,0,
2007-10-23, 00:02:00,VALID,917.244,VALID,0,VALID,100,VALID,-0.0679233,VALID,18.7272,VALID,68,VALID,0,
2007-10-23, 00:03:00,VALID,917.237,VALID,0.2,VALID,100,VALID,-0.0339617,VALID,18.7274,VALID,68,VALID,0,
2007-10-23, 00:04:00,VALID,917.229,VALID,0.2,VALID,100,VALID,-0.0509425,VALID,18.7184,VALID,68,VALID,0,
2007-10-23, 00:05:00,VALID,917.218,VALID,0.2,VALID,100,VALID,-0.0509425,VALID,18.6985,VALID,68,VALID,0,
2007-10-23, 00:06:00,VALID,917.181,VALID,0.2,VALID,100,VALID,-0.0169808,VALID,18.6948,VALID,68,VALID,0,
2007-10-23, 00:07:00,VALID,917.158,VALID,0.2,VALID,100,VALID,-0.0679233,VALID,18.6994,VALID,61,VALID,0.78234,
2007-10-23, 00:08:00,VALID,917.139,VALID,0,VALID,100,VALID,-0.118866,VALID,18.6999,VALID,59,VALID,0.643643,
2007-10-23, 00:09:00,VALID,917.126,VALID,0.2,VALID,100,VALID,-0.101885,VALID,18.7096,VALID,60,VALID,0.369449,
2007-10-23, 00:10:00,VALID,917.097,VALID,0,VALID,100,VALID,-0.135847,VALID,18.7194,VALID,60,VALID,0,
2007-10-23, 00:11:00,VALID,917.078,VALID,0,VALID,100,VALID,-0.118866,VALID,18.7096,VALID,50,VALID,0,
2007-10-23, 00:12:00,VALID,917.053,VALID,0.2,VALID,100,VALID,-0.118866,VALID,18.6899,VALID,78,VALID,0.859557,
2007-10-23, 00:13:00,VALID,917.048,VALID,0,VALID,100,VALID,-0.118866,VALID,18.6927,VALID,34,VALID,0.441778,
2007-10-23, 00:14:00,VALID,917.026,VALID,0.2,VALID,100,VALID,-0.101885,VALID,18.7027,VALID,75,VALID,0.172724,
2007-10-23, 00:15:00,VALID,917.029,VALID,0,VALID,100,VALID,-0.101885,VALID,18.6997,VALID,358,VALID,0.14262,
2007-10-23, 00:16:00,VALID,917.011,VALID,0,VALID,100,VALID,-0.101885,VALID,18.6994,VALID,55,VALID,0.921875,
2007-10-23, 00:17:00,VALID,917.017,VALID,0.2,VALID,100,VALID,-0.0849042,VALID,18.7099,VALID,62,VALID,0.118037,
2007-10-23, 00:18:00,VALID,917.009,VALID,0,VALID,100,VALID,-0.101885,VALID,18.7027,VALID,99,VALID,0.116279,
2007-10-23, 00:19:00,VALID,917.002,VALID,0,VALID,100,VALID,-0.101885,VALID,18.7159,VALID,350,VALID,0.47923,
2007-10-23, 00:20:00,VALID,916.982,VALID,0,VALID,100,VALID,-0.118866,VALID,18.7094,VALID,358,VALID,0.344727,
2007-10-23, 00:21:00,VALID,916.973,VALID,0,VALID,100,VALID,-0.135847,VALID,18.7091,VALID,62,VALID,0.801367,
2007-10-23, 00:22:00,VALID,916.971,VALID,0,VALID,100,VALID,-0.0339617,VALID,18.7017,VALID,23,VALID,0.102778,
2007-10-23, 00:23:00,VALID,916.97,VALID,0.2,VALID,100,VALID,-0.0169808,VALID,18.6952,VALID,40,VALID,0.300249,
2007-10-23, 00:24:00,VALID,916.963,VALID,0,VALID,100,VALID,-0.0169808,VALID,18.6955,VALID,89,VALID,0.643043,
2007-10-23, 00:25:00,VALID,916.94,VALID,0,VALID,100,VALID,0,VALID,18.6982,VALID,91,VALID,0.19375,
2007-10-23, 00:26:00,VALID,916.914,VALID,0,VALID,100,VALID,0,VALID,18.7052,VALID,70,VALID,1.82195,
2007-10-23, 00:27:00,VALID,916.915,VALID,0,VALID,100,VALID,0,VALID,18.6887,VALID,26,VALID,1.08993,
2007-10-23, 00:28:00,VALID,916.917,VALID,0.2,VALID,100,VALID,0,VALID,18.6885,VALID,96,VALID,0.724927,
2007-10-23, 00:29:00,VALID,916.898,VALID,0,VALID,100,VALID,0,VALID,18.6693,VALID,16,VALID,0.735102,
2007-10-23, 00:30:00,VALID,916.906,VALID,0,VALID,100,VALID,0,VALID,18.666,VALID,176,VALID,0.779948,
2007-10-23, 00:31:00,VALID,916.896,VALID,0,VALID,100,VALID,0,VALID,18.6466,VALID,31,VALID,0.932776,
2007-10-23, 00:32:00,VALID,916.889,VALID,0,VALID,100,VALID,0,VALID,18.6234,VALID,79,VALID,1.18524,
2007-10-23, 00:33:00,VALID,916.853,VALID,0,VALID,100,VALID,0.0169808,VALID,18.6266,VALID,17,VALID,1.09032,
2007-10-23, 00:34:00,VALID,916.868,VALID,0,VALID,100,VALID,0,VALID,18.6139,VALID,4,VALID,0.795573,
2007-10-23, 00:35:00,VALID,916.856,VALID,0,VALID,100,VALID,-0.0169808,VALID,18.6206,VALID,74,VALID,1.22843,
2007-10-23, 00:36:00,VALID,916.838,VALID,0.2,VALID,100,VALID,-0.0169808,VALID,18.6044,VALID,103,VALID,0.808685,
2007-10-23, 00:37:00,VALID,916.837,VALID,0,VALID,100,VALID,0,VALID,18.6239,VALID,65,VALID,1.0998,
2007-10-23, 00:38:00,VALID,916.861,VALID,0,VALID,100,VALID,0,VALID,18.6306,VALID,53,VALID,0.758311,
2007-10-23, 00:39:00,VALID,916.833,VALID,0,VALID,100,VALID,0,VALID,18.5979,VALID,54,VALID,1.34479,
2007-10-23, 00:40:00,VALID,916.837,VALID,0,VALID,100,VALID,0.0339617,VALID,18.572,VALID,61,VALID,1.75745,
2007-10-23, 00:41:00,VALID,916.829,VALID,0,VALID,100,VALID,0,VALID,18.5623,VALID,70,VALID,0.914063,
2007-10-23, 00:42:00,VALID,916.79,VALID,0,VALID,100,VALID,0.0169808,VALID,18.5259,VALID,55,VALID,0.946403,
2007-10-23, 00:43:00,VALID,916.775,VALID,0,VALID,100,VALID,-0.0169808,VALID,18.5039,VALID,61,VALID,1.60547,
2007-10-23, 00:44:00,VALID,916.77,VALID,0,VALID,100,VALID,0.0169808,VALID,18.4967,VALID,345,VALID,1.02166,
2007-10-23, 00:45:00,VALID,916.767,VALID,0,VALID,100,VALID,0.0169808,VALID,18.4647,VALID,43,VALID,1.50563,
2007-10-23, 00:46:00,VALID,916.766,VALID,0,VALID,100,VALID,-0.0169808,VALID,18.4643,VALID,73,VALID,1.3776,
2007-10-23, 00:47:00,VALID,916.716,VALID,0,VALID,100,VALID,0,VALID,18.468,VALID,69,VALID,1.56901,
2007-10-23, 00:48:00,VALID,916.718,VALID,0,VALID,100,VALID,-0.0169808,VALID,18.4522,VALID,38,VALID,1.49006,
2007-10-23, 00:49:00,VALID,916.678,VALID,0,VALID,100,VALID,-0.0339617,VALID,18.4064,VALID,54,VALID,1.08193,
2007-10-23, 00:50:00,VALID,916.685,VALID,0,VALID,100,VALID,-0.0339617,VALID,18.4133,VALID,45,VALID,1.21984,
2007-10-23, 00:51:00,VALID,916.663,VALID,0,VALID,100,VALID,0,VALID,18.3874,VALID,61,VALID,1.26637,
2007-10-23, 00:52:00,VALID,916.642,VALID,0,VALID,100,VALID,0,VALID,18.3839,VALID,50,VALID,1.08937,
2007-10-23, 00:53:00,VALID,916.628,VALID,0,VALID,100,VALID,-0.0169808,VALID,18.3938,VALID,77,VALID,1.20484,
2007-10-23, 00:54:00,VALID,916.615,VALID,0,VALID,100,VALID,-0.0169808,VALID,18.4196,VALID,141,VALID,1.09535,
2007-10-23, 00:55:00,VALID,916.58,VALID,0,VALID,100,VALID,-0.0339617,VALID,18.4196,VALID,120,VALID,1.73722,
2007-10-23, 00:56:00,VALID,916.575,VALID,0,VALID,100,VALID,-0.0169808,VALID,18.4098,VALID,82,VALID,2.36955,
2007-10-23, 00:57:00,VALID,916.57,VALID,0,VALID,100,VALID,-0.0339617,VALID,18.4101,VALID,224,VALID,0.940739,
2007-10-23, 00:58:00,VALID,916.555,VALID,0,VALID,100,VALID,-0.0339617,VALID,18.3938,VALID,60,VALID,0.942708,
2007-10-23, 00:59:00,VALID,916.557,VALID,0,VALID,100,VALID,-0.0679233,VALID,18.3906,VALID,46,VALID,1.11133,
2007-10-23, 01:00:00,VALID,916.551,VALID,0,VALID,100,VALID,-0.0509425,VALID,18.3876,VALID,22,VALID,0.508333,
2007-10-23, 01:01:00,VALID,916.54,VALID,0,VALID,100,VALID,-0.0169808,VALID,18.3971,VALID,318,VALID,0.35119,
2007-10-23, 01:02:00,VALID,916.515,VALID,0,VALID,100,VALID,0,VALID,18.3996,VALID,172,VALID,0.521257,
2007-10-23, 01:03:00,VALID,916.494,VALID,0,VALID,100,VALID,0,VALID,18.3906,VALID,71,VALID,1.29874,
2007-10-23, 01:04:00,VALID,916.513,VALID,0.2,VALID,100,VALID,0,VALID,18.3936,VALID,79,VALID,0.606957,
2007-10-23, 01:05:00,VALID,916.488,VALID,0,VALID,100,VALID,0,VALID,18.3931,VALID,182,VALID,1.02934,
2007-10-23, 01:06:00,VALID,916.487,VALID,0,VALID,100,VALID,-0.0169808,VALID,18.4033,VALID,58,VALID,0.76399,
2007-10-23, 01:07:00,VALID,916.501,VALID,0,VALID,100,VALID,-0.0169808,VALID,18.3999,VALID,51,VALID,0.625572,
2007-10-23, 01:08:00,VALID,916.467,VALID,0,VALID,100,VALID,-0.0169808,VALID,18.3936,VALID,113,VALID,0.531622,
2007-10-23, 01:09:00,VALID,916.47,VALID,0,VALID,100,VALID,-0.0509425,VALID,18.3837,VALID,82,VALID,0.496189,
2007-10-23, 01:10:00,VALID,916.461,VALID,0,VALID,100,VALID,-0.0339617,VALID,18.3871,VALID,77,VALID,0.746299,
2007-10-23, 01:11:00,VALID,916.43,VALID,0,VALID,100,VALID,-0.0339617,VALID,18.3904,VALID,85,VALID,1.83975,
2007-10-23, 01:12:00,VALID,916.394,VALID,0,VALID,100,VALID,-0.0509425,VALID,18.3869,VALID,70,VALID,1.96742,
2007-10-23, 01:13:00,VALID,916.422,VALID,0,VALID,100,VALID,-0.0339617,VALID,18.3904,VALID,137,VALID,0.877778,
2007-10-23, 01:14:00,VALID,916.397,VALID,0,VALID,100,VALID,-0.0679233,VALID,18.3904,VALID,106,VALID,1.06977,
2007-10-23, 01:15:00,VALID,916.367,VALID,0,VALID,100,VALID,-0.0339617,VALID,18.3704,VALID,46,VALID,1.59339,
2007-10-23, 01:16:00,VALID,916.368,VALID,0,VALID,100,VALID,-0.0509425,VALID,18.3647,VALID,277,VALID,1.08518,
2007-10-23, 01:17:00,VALID,916.386,VALID,0,VALID,100,VALID,-0.0339617,VALID,18.3744,VALID,6,VALID,1.32626,
2007-10-23, 01:18:00,VALID,916.391,VALID,0,VALID,100,VALID,-0.0169808,VALID,18.3744,VALID,60,VALID,0.821646,
2007-10-23, 01:19:00,VALID,916.364,VALID,0,VALID,100,VALID,-0.0849042,VALID,18.3547,VALID,35,VALID,0.776042,
2007-10-23, 01:20:00,VALID,916.358,VALID,0,VALID,100,VALID,-0.0679233,VALID,18.342,VALID,68,VALID,0.712271,
2007-10-23, 01:21:00,VALID,916.347,VALID,0,VALID,100,VALID,-0.0679233,VALID,18.3355,VALID,293,VALID,0.916243,
2007-10-23, 01:22:00,VALID,916.35,VALID,0,VALID,100,VALID,-0.0339617,VALID,18.3128,VALID,216,VALID,1.31831,
2007-10-23, 01:23:00,VALID,916.34,VALID,0,VALID,100,VALID,-0.0679233,VALID,18.2896,VALID,72,VALID,1.48964,
2007-10-23, 01:24:00,VALID,916.344,VALID,0,VALID,100,VALID,-0.0849042,VALID,18.2998,VALID,126,VALID,1.08887,
2007-10-23, 01:25:00,VALID,916.324,VALID,0,VALID,100,VALID,-0.0509425,VALID,18.2674,VALID,83,VALID,1.1596,
2007-10-23, 01:26:00,VALID,916.316,VALID,0,VALID,100,VALID,-0.0339617,VALID,18.2315,VALID,48,VALID,0.811198,
2007-10-23, 01:27:00,VALID,916.327,VALID,0,VALID,100,VALID,-0.0849042,VALID,18.215,VALID,60,VALID,1.18118,
2007-10-23, 01:28:00,VALID,916.293,VALID,0.2,VALID,100,VALID,-0.0849042,VALID,18.2155,VALID,36,VALID,1.22377,
2007-10-23, 01:29:00,VALID,916.293,VALID,0,VALID,100,VALID,-0.0509425,VALID,18.1668,VALID,82,VALID,1.78856,
2007-10-23, 01:30:00,VALID,916.281,VALID,0,VALID,100,VALID,-0.0679233,VALID,18.1604,VALID,75,VALID,1.29355,
2007-10-23, 01:31:00,VALID,916.276,VALID,0,VALID,100,VALID,-0.0679233,VALID,18.1638,VALID,352,VALID,1.31889,
2007-10-23, 01:32:00,VALID,916.275,VALID,0,VALID,100,VALID,-0.0679233,VALID,18.1414,VALID,52,VALID,1.21439,
2007-10-23, 01:33:00,VALID,916.24,VALID,0,VALID,100,VALID,-0.0849042,VALID,18.1509,VALID,52,VALID,1.24023,
2007-10-23, 01:34:00,VALID,916.237,VALID,0,VALID,100,VALID,-0.0679233,VALID,18.1115,VALID,73,VALID,2.31059,
2007-10-23, 01:35:00,VALID,916.238,VALID,0,VALID,100,VALID,-0.0509425,VALID,18.105,VALID,69,VALID,2.1069,
2007-10-23, 01:36:00,VALID,916.22,VALID,0,VALID,100,VALID,-0.0679233,VALID,18.0793,VALID,69,VALID,1.27679,
2007-10-23, 01:37:00,VALID,916.193,VALID,0,VALID,100,VALID,-0.0849042,VALID,18.0825,VALID,60,VALID,1.19277,
2007-10-23, 01:38:00,VALID,916.206,VALID,0,VALID,100,VALID,-0.0339617,VALID,18.0855,VALID,352,VALID,0.63121,
2007-10-23, 01:39:00,VALID,916.206,VALID,0,VALID,100,VALID,-0.0339617,VALID,18.0858,VALID,80,VALID,1.03385,
2007-10-23, 01:40:00,VALID,916.202,VALID,0,VALID,100,VALID,-0.0339617,VALID,18.0888,VALID,78,VALID,0.81064,
2007-10-23, 01:41:00,VALID,916.172,VALID,0,VALID,100,VALID,-0.0169808,VALID,18.0661,VALID,69,VALID,1.12918,
2007-10-23, 01:42:00,VALID,916.145,VALID,0,VALID,100,VALID,-0.0169808,VALID,18.0858,VALID,68,VALID,1.43387,
2007-10-23, 01:43:00,VALID,916.118,VALID,0,VALID,100,VALID,-0.0339617,VALID,18.0758,VALID,84,VALID,1.3418,
2007-10-23, 01:44:00,VALID,916.112,VALID,0,VALID,100,VALID,-0.0849042,VALID,18.0564,VALID,75,VALID,1.65569,
2007-10-23, 01:45:00,VALID,916.119,VALID,0,VALID,100,VALID,-0.0849042,VALID,18.0404,VALID,63,VALID,0.917515,
2007-10-23, 01:46:00,VALID,916.093,VALID,0,VALID,100,VALID,-0.0169808,VALID,18.0304,VALID,78,VALID,1.21948,
2007-10-23, 01:47:00,VALID,916.092,VALID,0,VALID,100,VALID,-0.0169808,VALID,18.0202,VALID,72,VALID,0.670351,
2007-10-23, 01:48:00,VALID,916.059,VALID,0.2,VALID,100,VALID,-0.0339617,VALID,18.0237,VALID,77,VALID,1.3145,
2007-10-23, 01:49:00,VALID,916.06,VALID,0,VALID,100,VALID,-0.0679233,VALID,18.0049,VALID,74,VALID,1.65934,
2007-10-23, 01:50:00,VALID,916.035,VALID,0,VALID,100,VALID,-0.0339617,VALID,18.0012,VALID,75,VALID,1.56955,
2007-10-23, 01:51:00,VALID,916.026,VALID,0,VALID,100,VALID,-0.0509425,VALID,18.0045,VALID,60,VALID,1.25457,
2007-10-23, 01:52:00,VALID,916.018,VALID,0,VALID,100,VALID,-0.0509425,VALID,18.017,VALID,68,VALID,0.701308,
2007-10-23, 01:53:00,VALID,916.011,VALID,0,VALID,100,VALID,-0.0169808,VALID,18.0142,VALID,72,VALID,1.0845,
2007-10-23, 01:54:00,VALID,916.011,VALID,0,VALID,100,VALID,-0.0339617,VALID,17.9917,VALID,59,VALID,1.15359,
2007-10-23, 01:55:00,VALID,916.003,VALID,0,VALID,100,VALID,-0.0339617,VALID,17.9815,VALID,73,VALID,1.50462,
2007-10-23, 01:56:00,VALID,915.996,VALID,0,VALID,100,VALID,-0.0509425,VALID,17.9815,VALID,71,VALID,1.36808,
2007-10-23, 01:57:00,VALID,915.973,VALID,0,VALID,100,VALID,-0.0169808,VALID,17.9818,VALID,64,VALID,1.28427,
2007-10-23, 01:58:00,VALID,915.962,VALID,0,VALID,100,VALID,-0.0339617,VALID,17.998,VALID,75,VALID,1.8737,
2007-10-23, 01:59:00,VALID,915.97,VALID,0,VALID,100,VALID,-0.0169808,VALID,17.9813,VALID,66,VALID,1.72584,
2007-10-23, 02:00:00,VALID,915.945,VALID,0.2,VALID,100,VALID,-0.0169808,VALID,17.9656,VALID,56,VALID,1.85992,
2007-10-23, 02:01:00,VALID,915.927,VALID,0,VALID,100,VALID,-0.0339617,VALID,17.9493,VALID,55,VALID,1.76653,
2007-10-23, 02:02:00,VALID,915.907,VALID,0,VALID,100,VALID,-0.0169808,VALID,17.9558,VALID,62,VALID,1.62805,
2007-10-23, 02:03:00,VALID,915.906,VALID,0,VALID,100,VALID,-0.0339617,VALID,17.9463,VALID,65,VALID,1.41685,
2007-10-23, 02:04:00,VALID,915.898,VALID,0,VALID,100,VALID,0,VALID,17.9364,VALID,54,VALID,0.943266,
2007-10-23, 02:05:00,VALID,915.901,VALID,0,VALID,100,VALID,-0.0169808,VALID,17.9322,VALID,62,VALID,1.68189,
2007-10-23, 02:06:00,VALID,915.904,VALID,0,VALID,100,VALID,-0.0509425,VALID,17.9459,VALID,68,VALID,1.40879,
2007-10-23, 02:07:00,VALID,915.895,VALID,0,VALID,100,VALID,0,VALID,17.9547,VALID,66,VALID,1.14753,
2007-10-23, 02:08:00,VALID,915.898,VALID,0.2,VALID,100,VALID,0,VALID,17.9582,VALID,70,VALID,1.4027,
2007-10-23, 02:09:00,VALID,915.905,VALID,0,VALID,100,VALID,0,VALID,17.9579,VALID,55,VALID,1.41061,
2007-10-23, 02:10:00,VALID,915.871,VALID,0,VALID,100,VALID,-0.0169808,VALID,17.9454,VALID,62,VALID,1.20778,
2007-10-23, 02:11:00,VALID,915.85,VALID,0,VALID,100,VALID,0,VALID,17.9489,VALID,57,VALID,0.481326,
2007-10-23, 02:12:00,VALID,915.824,VALID,0,VALID,100,VALID,0,VALID,17.9547,VALID,64,VALID,1.02433,
2007-10-23, 02:13:00,VALID,915.838,VALID,0,VALID,100,VALID,0.0339617,VALID,17.9616,VALID,33,VALID,0.419389,
2007-10-23, 02:14:00,VALID,915.842,VALID,0,VALID,100,VALID,0,VALID,17.9651,VALID,45,VALID,0.575,
2007-10-23, 02:15:00,VALID,915.814,VALID,0.2,VALID,100,VALID,0.0339617,VALID,17.9223,VALID,30,VALID,1.3112,
2007-10-23, 02:16:00,VALID,915.79,VALID,0,VALID,100,VALID,-0.0169808,VALID,17.9033,VALID,55,VALID,1.08125,
2007-10-23, 02:17:00,VALID,915.77,VALID,0,VALID,100,VALID,-0.0169808,VALID,17.8972,VALID,39,VALID,1.66352,
2007-10-23, 02:18:00,VALID,915.78,VALID,0,VALID,100,VALID,0,VALID,17.9033,VALID,53,VALID,1.26836,
2007-10-23, 02:19:00,VALID,915.774,VALID,0,VALID,100,VALID,-0.0169808,VALID,17.9098,VALID,56,VALID,1.12853,
2007-10-23, 02:20:00,VALID,915.758,VALID,0,VALID,100,VALID,-0.0339617,VALID,17.8873,VALID,30,VALID,2.09925,
2007-10-23, 02:21:00,VALID,915.76,VALID,0,VALID,100,VALID,0,VALID,17.8836,VALID,57,VALID,1.58993,
2007-10-23, 02:22:00,VALID,915.745,VALID,0,VALID,100,VALID,0.0169808,VALID,17.8838,VALID,66,VALID,2.20252,
2007-10-23, 02:23:00,VALID,915.742,VALID,0,VALID,100,VALID,0.0169808,VALID,17.8838,VALID,57,VALID,1.70858,
2007-10-23, 02:24:00,VALID,915.749,VALID,0,VALID,100,VALID,0.0339617,VALID,17.8836,VALID,56,VALID,1.65774,
2007-10-23, 02:25:00,VALID,915.741,VALID,0,VALID,100,VALID,0.0509425,VALID,17.8933,VALID,53,VALID,1.28925,
2007-10-23, 02:26:00,VALID,915.74,VALID,0,VALID,100,VALID,0.0849042,VALID,17.8994,VALID,57,VALID,1.37445,
2007-10-23, 02:27:00,VALID,915.736,VALID,0,VALID,100,VALID,0.0169808,VALID,17.8903,VALID,66,VALID,0.965511,
2007-10-23, 02:28:00,VALID,915.725,VALID,0,VALID,100,VALID,0.0169808,VALID,17.8901,VALID,68,VALID,1.38819,
2007-10-23, 02:29:00,VALID,915.706,VALID,0,VALID,100,VALID,0,VALID,17.8806,VALID,58,VALID,1.3859,
2007-10-23, 02:30:00,VALID,915.706,VALID,0,VALID,100,VALID,-0.0169808,VALID,17.8609,VALID,53,VALID,0.975991,
2007-10-23, 02:31:00,VALID,915.704,VALID,0,VALID,100,VALID,0.0169808,VALID,17.8836,VALID,49,VALID,0.244318,
2007-10-23, 02:32:00,VALID,915.69,VALID,0,VALID,100,VALID,0,VALID,17.8804,VALID,62,VALID,0.516026,
2007-10-23, 02:33:00,VALID,915.682,VALID,0,VALID,100,VALID,0.0339617,VALID,17.8706,VALID,59,VALID,0.870236,
2007-10-23, 02:34:00,VALID,915.674,VALID,0,VALID,100,VALID,0.0169808,VALID,17.8771,VALID,58,VALID,0.41915,
2007-10-23, 02:35:00,VALID,915.648,VALID,0,VALID,100,VALID,0,VALID,17.8676,VALID,64,VALID,0.975347,
2007-10-23, 02:36:00,VALID,915.642,VALID,0,VALID,100,VALID,0,VALID,17.8579,VALID,69,VALID,1.4434,
2007-10-23, 02:37:00,VALID,915.622,VALID,0,VALID,100,VALID,0,VALID,17.9009,VALID,67,VALID,0.743945,
2007-10-23, 02:38:00,VALID,915.604,VALID,0,VALID,100,VALID,0,VALID,17.8843,VALID,75,VALID,0.492733,
2007-10-23, 02:39:00,VALID,915.599,VALID,0.2,VALID,100,VALID,0.0339617,VALID,17.8706,VALID,65,VALID,1.01083,
2007-10-23, 02:40:00,VALID,915.588,VALID,0,VALID,100,VALID,0.0169808,VALID,17.8743,VALID,64,VALID,0.770461,
2007-10-23, 02:41:00,VALID,915.57,VALID,0,VALID,100,VALID,0,VALID,17.8741,VALID,50,VALID,1.31992,
2007-10-23, 02:42:00,VALID,915.578,VALID,0,VALID,100,VALID,0.0169808,VALID,17.8704,VALID,56,VALID,1.175,
2007-10-23, 02:43:00,VALID,915.562,VALID,0,VALID,100,VALID,-0.0169808,VALID,17.8873,VALID,54,VALID,1.117,
2007-10-23, 02:44:00,VALID,915.551,VALID,0,VALID,100,VALID,0.0339617,VALID,17.8769,VALID,69,VALID,1.52285,
2007-10-23, 02:45:00,VALID,915.54,VALID,0,VALID,100,VALID,0.0169808,VALID,17.8773,VALID,59,VALID,1.21165,
2007-10-23, 02:46:00,VALID,915.534,VALID,0,VALID,100,VALID,0,VALID,17.8773,VALID,46,VALID,0.981831,
2007-10-23, 02:47:00,VALID,915.541,VALID,0,VALID,100,VALID,-0.0169808,VALID,17.8838,VALID,67,VALID,0.910061,
2007-10-23, 02:48:00,VALID,915.534,VALID,0,VALID,100,VALID,0,VALID,17.8966,VALID,62,VALID,1.27139,
2007-10-23, 02:49:00,VALID,915.509,VALID,0,VALID,100,VALID,0,VALID,17.8901,VALID,67,VALID,1.10694,
2007-10-23, 02:50:00,VALID,915.491,VALID,0,VALID,100,VALID,0.0169808,VALID,17.9061,VALID,75,VALID,0.511328,
2007-10-23, 02:51:00,VALID,915.482,VALID,0,VALID,100,VALID,0,VALID,17.9095,VALID,67,VALID,0.614462,
2007-10-23, 02:52:00,VALID,915.465,VALID,0,VALID,100,VALID,-0.0849042,VALID,17.9104,VALID,54,VALID,0.901296,
2007-10-23, 02:53:00,VALID,915.466,VALID,0,VALID,100,VALID,-0.101885,VALID,17.9076,VALID,56,VALID,0.860305,
2007-10-23, 02:54:00,VALID,915.477,VALID,0,VALID,100,VALID,-0.101885,VALID,17.9044,VALID,60,VALID,0.368862,
2007-10-23, 02:55:00,VALID,915.472,VALID,0,VALID,100,VALID,-0.101885,VALID,17.8912,VALID,28,VALID,0.72237,
2007-10-23, 02:56:00,VALID,915.468,VALID,0,VALID,100,VALID,-0.118866,VALID,17.8947,VALID,48,VALID,0.758662,
2007-10-23, 02:57:00,VALID,915.464,VALID,0,VALID,100,VALID,-0.152827,VALID,17.9146,VALID,48,VALID,1.10518,
2007-10-23, 02:58:00,VALID,915.44,VALID,0,VALID,100,VALID,-0.101885,VALID,17.9343,VALID,51,VALID,0.837754,
2007-10-23, 02:59:00,VALID,915.449,VALID,0,VALID,100,VALID,-0.101885,VALID,17.9433,VALID,289,VALID,0.544271,
2007-10-23, 03:00:00,VALID,915.456,VALID,0,VALID,100,VALID,-0.101885,VALID,17.9472,VALID,285,VALID,0.420641,
2007-10-23, 03:01:00,VALID,915.456,VALID,0,VALID,100,VALID,-0.118866,VALID,17.9338,VALID,292,VALID,0.0144097,
2007-10-23, 03:02:00,VALID,915.455,VALID,0,VALID,100,VALID,-0.118866,VALID,17.9403,VALID,292,VALID,0.00109012,
2007-10-23, 03:03:00,VALID,915.432,VALID,0,VALID,100,VALID,-0.118866,VALID,17.9475,VALID,61,VALID,0.799964,
2007-10-23, 03:04:00,VALID,915.425,VALID,0,VALID,100,VALID,-0.101885,VALID,17.957,VALID,58,VALID,0.87168,
2007-10-23, 03:05:00,VALID,915.422,VALID,0,VALID,100,VALID,-0.118866,VALID,17.954,VALID,26,VALID,0.547763,
2007-10-23, 03:06:00,VALID,915.414,VALID,0,VALID,100,VALID,-0.118866,VALID,17.966,VALID,20,VALID,0.286458,
2007-10-23, 03:07:00,VALID,915.396,VALID,0,VALID,100,VALID,-0.0679233,VALID,17.9625,VALID,43,VALID,0.371626,
2007-10-23, 03:08:00,VALID,915.407,VALID,0,VALID,100,VALID,-0.0509425,VALID,17.9591,VALID,65,VALID,0.342448,
2007-10-23, 03:09:00,VALID,915.415,VALID,0,VALID,100,VALID,-0.0679233,VALID,17.9616,VALID,65,VALID,0.66369,
2007-10-23, 03:10:00,VALID,915.406,VALID,0,VALID,100,VALID,0,VALID,17.9776,VALID,65,VALID,0.134811,
2007-10-23, 03:11:00,VALID,915.407,VALID,0,VALID,100,VALID,0,VALID,17.9973,VALID,65,VALID,0.295455,
2007-10-23, 03:12:00,VALID,915.405,VALID,0,VALID,100,VALID,-0.0339617,VALID,17.9906,VALID,65,VALID,0.467115,
2007-10-23, 03:13:00,VALID,915.406,VALID,0,VALID,100,VALID,-0.0339617,VALID,17.9941,VALID,65,VALID,0.444404,
2007-10-23, 03:14:00,VALID,915.422,VALID,0,VALID,100,VALID,0,VALID,18.0073,VALID,69,VALID,1.01142,
2007-10-23, 03:15:00,VALID,915.418,VALID,0,VALID,100,VALID,-0.0169808,VALID,18.0131,VALID,70,VALID,1.28675,
2007-10-23, 03:16:00,VALID,915.395,VALID,0,VALID,100,VALID,-0.0339617,VALID,18.0168,VALID,70,VALID,1.39996,
2007-10-23, 03:17:00,VALID,915.413,VALID,0,VALID,100,VALID,-0.0169808,VALID,18.0198,VALID,70,VALID,1.33242,
2007-10-23, 03:18:00,VALID,915.404,VALID,0,VALID,100,VALID,-0.0509425,VALID,18.0332,VALID,66,VALID,0.725419,
2007-10-23, 03:19:00,VALID,915.387,VALID,0,VALID,100,VALID,-0.0339617,VALID,17.9973,VALID,62,VALID,1.04334,
2007-10-23, 03:20:00,VALID,915.398,VALID,0,VALID,100,VALID,-0.0339617,VALID,18.0107,VALID,69,VALID,1.26172,
2007-10-23, 03:21:00,VALID,915.395,VALID,0,VALID,100,VALID,-0.0169808,VALID,18.0135,VALID,71,VALID,0.822443,
2007-10-23, 03:22:00,VALID,915.407,VALID,0,VALID,100,VALID,0,VALID,18.007,VALID,50,VALID,0.262277,
2007-10-23, 03:23:00,VALID,915.43,VALID,0.2,VALID,100,VALID,-0.0509425,VALID,18.0042,VALID,57,VALID,0,
2007-10-23, 03:24:00,VALID,915.42,VALID,0,VALID,100,VALID,-0.0339617,VALID,18.004,VALID,323,VALID,0.0603198,
2007-10-23, 03:25:00,VALID,915.403,VALID,0,VALID,100,VALID,-0.0339617,VALID,18.0038,VALID,307,VALID,0.0494186,
2007-10-23, 03:26:00,VALID,915.402,VALID,0,VALID,100,VALID,-0.0169808,VALID,18.0205,VALID,145,VALID,0.15625,
2007-10-23, 03:27:00,VALID,915.401,VALID,0,VALID,100,VALID,0,VALID,18.0232,VALID,11,VALID,0.197443,
2007-10-23, 03:28:00,VALID,915.4,VALID,0,VALID,100,VALID,-0.0169808,VALID,18.0332,VALID,62,VALID,1.20103,
2007-10-23, 03:29:00,VALID,915.392,VALID,0,VALID,100,VALID,-0.0169808,VALID,18.0302,VALID,65,VALID,0.789789,
2007-10-23, 03:30:00,VALID,915.414,VALID,0,VALID,100,VALID,-0.0679233,VALID,18.0469,VALID,36,VALID,0.28125,
2007-10-23, 03:31:00,VALID,915.417,VALID,0,VALID,100,VALID,0,VALID,18.0561,VALID,348,VALID,0,
2007-10-23, 03:32:00,VALID,915.409,VALID,0,VALID,100,VALID,-0.0339617,VALID,18.0494,VALID,299,VALID,0.265115,
2007-10-23, 03:33:00,VALID,915.42,VALID,0,VALID,100,VALID,-0.0679233,VALID,18.0494,VALID,257,VALID,0.12843,
2007-10-23, 03:34:00,VALID,915.397,VALID,0,VALID,100,VALID,-0.0339617,VALID,18.0529,VALID,259,VALID,0.389172,
2007-10-23, 03:35:00,VALID,915.399,VALID,0,VALID,100,VALID,0,VALID,18.0459,VALID,316,VALID,0.389482,
2007-10-23, 03:36:00,VALID,915.407,VALID,0,VALID,100,VALID,-0.0339617,VALID,18.0622,VALID,13,VALID,0.602679,
2007-10-23, 03:37:00,VALID,915.39,VALID,0,VALID,100,VALID,-0.0339617,VALID,18.0587,VALID,248,VALID,0.130907,
2007-10-23, 03:38:00,VALID,915.406,VALID,0,VALID,100,VALID,-0.0169808,VALID,18.0786,VALID,248,VALID,0.0303622,
2007-10-23, 03:39:00,VALID,915.393,VALID,0,VALID,100,VALID,-0.0169808,VALID,18.0786,VALID,101,VALID,0.510975,
2007-10-23, 03:40:00,VALID,915.395,VALID,0,VALID,100,VALID,-0.0339617,VALID,18.0851,VALID,78,VALID,0.712636,
2007-10-23, 03:41:00,VALID,915.389,VALID,0,VALID,100,VALID,-0.0339617,VALID,18.095,VALID,64,VALID,0.923018,